TimeAKST,TemperatureF,Dew PointF,Humidity,Sea Level PressureIn,VisibilityMPH,Wind Direction,Wind SpeedMPH,Gust SpeedMPH,PrecipitationIn,Events,Conditions,WindDirDegrees,DateUTC
12:53 AM,25.0,21.9,88,29.68,10.0,Calm,Calm,-,N/A,,Overcast,0,2014-03-06 09:53:00
1:53 AM,24.1,21.9,91,29.68,10.0,North,3.5,-,N/A,,Overcast,350,2014-03-06 10:53:00
2:53 AM,24.1,21.0,88,29.68,10.0,Calm,Calm,-,N/A,,Overcast,0,2014-03-06 11:53:00
3:53 AM,21.9,19.9,92,29.68,10.0,Calm,Calm,-,N/A,,Overcast,0,2014-03-06 12:53:00
4:51 AM,19.4,17.6,93,29.66,5.0,Calm,Calm,-,N/A,,Overcast,0,2014-03-06 13:51:00
4:53 AM,19.9,18.0,92,29.68,3.0,Calm,Calm,-,N/A,,Overcast,0,2014-03-06 13:53:00
4:55 AM,19.4,17.6,93,29.66,1.5,Calm,Calm,-,N/A,,Overcast,0,2014-03-06 13:55:00
5:04 AM,21.2,19.4,93,29.66,0.2,Calm,Calm,-,N/A,Fog,Light Freezing Fog,0,2014-03-06 14:04:00
5:40 AM,21.2,21.2,100,29.66,1.0,Calm,Calm,-,N/A,,Overcast,0,2014-03-06 14:40:00
5:50 AM,21.2,21.2,100,29.66,0.8,Calm,Calm,-,N/A,,Overcast,0,2014-03-06 14:50:00
5:53 AM,21.9,21.0,96,29.68,0.8,Calm,Calm,-,N/A,,Overcast,0,2014-03-06 14:53:00
6:07 AM,23.0,21.2,93,29.66,2.0,Calm,Calm,-,N/A,,Overcast,0,2014-03-06 15:07:00
6:15 AM,23.0,21.2,93,29.66,5.0,Calm,Calm,-,N/A,,Overcast,0,2014-03-06 15:15:00
6:53 AM,21.9,19.9,92,29.68,10.0,WSW,3.5,-,N/A,,Overcast,240,2014-03-06 15:53:00
7:53 AM,21.9,19.9,92,29.69,6.0,WSW,3.5,-,N/A,,Overcast,250,2014-03-06 16:53:00
8:53 AM,21.0,19.9,96,29.70,4.0,Calm,Calm,-,N/A,,Overcast,0,2014-03-06 17:53:00
9:53 AM,21.0,18.0,88,29.71,8.0,Calm,Calm,-,N/A,,Overcast,0,2014-03-06 18:53:00
10:53 AM,21.0,19.0,92,29.71,5.0,Calm,Calm,-,N/A,,Overcast,0,2014-03-06 19:53:00
11:53 AM,21.0,19.9,96,29.72,4.0,Calm,Calm,-,N/A,,Overcast,0,2014-03-06 20:53:00
12:53 PM,21.0,19.9,96,29.72,5.0,Calm,Calm,-,N/A,,Overcast,0,2014-03-06 21:53:00
1:53 PM,21.0,19.9,96,29.72,10.0,Calm,Calm,-,N/A,,Overcast,0,2014-03-06 22:53:00
2:48 PM,21.2,19.4,93,29.70,10.0,Calm,Calm,-,N/A,,Overcast,0,2014-03-06 23:48:00
2:53 PM,21.0,19.9,96,29.72,10.0,Calm,Calm,-,N/A,,Overcast,0,2014-03-06 23:53:00
3:53 PM,23.0,19.9,88,29.72,10.0,Calm,Calm,-,N/A,,Overcast,0,2014-03-07 00:53:00
4:53 PM,21.0,19.0,92,29.71,10.0,Calm,Calm,-,N/A,,Scattered Clouds,0,2014-03-07 01:53:00
5:53 PM,21.0,19.0,92,29.70,10.0,Calm,Calm,-,N/A,,Clear,0,2014-03-07 02:53:00
6:53 PM,19.0,15.1,85,29.70,4.0,Calm,Calm,-,N/A,,Clear,0,2014-03-07 03:53:00
7:01 PM,17.6,15.8,93,29.69,1.8,Calm,Calm,-,N/A,,Clear,0,2014-03-07 04:01:00
7:08 PM,17.6,15.8,93,29.69,5.0,Calm,Calm,-,N/A,,Clear,0,2014-03-07 04:08:00
7:23 PM,15.8,12.2,86,29.69,1.8,Calm,Calm,-,N/A,,Clear,0,2014-03-07 04:23:00
7:29 PM,15.8,12.2,86,29.69,0.8,Calm,Calm,-,N/A,,Mist,0,2014-03-07 04:29:00
7:38 PM,17.6,14.0,86,29.69,1.5,Calm,Calm,-,N/A,,Partly Cloudy,0,2014-03-07 04:38:00
7:40 PM,17.6,14.0,86,29.69,3.0,Calm,Calm,-,N/A,,Clear,0,2014-03-07 04:40:00
7:45 PM,17.6,14.0,86,29.69,1.8,Calm,Calm,-,N/A,,Clear,0,2014-03-07 04:45:00
7:53 PM,14.0,12.0,92,29.71,0.2,Calm,Calm,-,N/A,Fog,Light Freezing Fog,0,2014-03-07 04:53:00
8:05 PM,15.8,14.0,93,29.69,3.0,Calm,Calm,-,N/A,,Partly Cloudy,0,2014-03-07 05:05:00
8:26 PM,14.0,10.4,86,29.69,7.0,North,3.5,-,N/A,,Mostly Cloudy,350,2014-03-07 05:26:00
8:53 PM,10.9,10.0,96,29.71,9.0,Calm,Calm,-,N/A,,Scattered Clouds,0,2014-03-07 05:53:00
9:53 PM,9.0,6.1,88,29.72,8.0,Calm,Calm,-,N/A,,Clear,0,2014-03-07 06:53:00
10:53 PM,10.9,9.0,92,29.72,10.0,Calm,Calm,-,N/A,,Clear,0,2014-03-07 07:53:00
11:53 PM,10.9,7.0,84,29.72,10.0,Calm,Calm,-,N/A,,Clear,0,2014-03-07 08:53:00